Flag for U.S.A. Weather past 2 weeks in Paramus, New Jersey, U.S.A.

Now
64 °F

Cloudy.


Feels Like: 64 °F
Forecast: 49 / 66 °F
Wind: 6 mph from Southeast

Location: Teterboro Airport

Current Time: Oct 21, 2014 at 4:55:10 PM

Latest Report: Oct 21, 2014 at 3:51 PM


Visibility: 10 mi

Pressure: 29.82 "Hg

Humidity: 68%

Dew point: 53 °F

Location of ParamusLocation

Historic Weather in Paramus — Graph

°F

Paramus temperature yesterday

Maximum temperature yesterday: 60 °F (at 3:51 PM)
Minimum temperature yesterday: 38 °F (at 2:51 AM)
Average temperature yesterday: 49 °F

Past Weeks' High & Low Weather Summary

 TemperatureHumidityPressure
High81 °F (Oct 15, 11:51 AM)94% (Oct 14, 2:58 AM)30.33 "Hg (Oct 14, 2:58 AM)
Low38 °F (Oct 20, 2:51 AM)27% (Oct 9, 12:51 PM)29.56 "Hg (Oct 18, 1:51 PM)
Average61 °F64%29.97 "Hg
* Reported Oct 6 3:51 PM — Oct 21 3:51 PM, Paramus, Weather by CustomWeather, © 2014

Note: Actual official high and low records may vary slightly from our data, if they occured in-between our weather recording intervals... More about our weather records

Advertising

Paramus weather history for previous 24 hours

 ConditionsComfort  
Time TempWeatherWind HumidityBarometerVisibility
3:51 PM
Oct 21
64 °FCloudy.6 mph68%29.82 "Hg10 mi
2:51 PM63 °FLight rain. Mostly cloudy.7 mph68%29.82 "Hg10 mi
1:51 PM65 °FLight rain. Overcast.No wind54%29.83 "Hg10 mi
12:51 PM66 °FPartly sunny.No wind52%29.85 "Hg10 mi
11:51 AM63 °FPartly sunny.5 mph56%29.87 "Hg10 mi
10:51 AM63 °FScattered clouds.5 mph58%29.88 "Hg10 mi
9:51 AM59 °FScattered clouds.5 mph64%29.89 "Hg10 mi
8:51 AM57 °FPartly sunny.No wind67%29.89 "Hg10 mi
7:51 AM51 °FPassing clouds.7 mph80%29.89 "Hg10 mi
6:51 AM52 °FPassing clouds.No wind77%29.89 "Hg10 mi
5:51 AM51 °FPassing clouds.3 mph77%29.89 "Hg10 mi
4:51 AM52 °FMostly cloudy.No wind77%29.90 "Hg10 mi
3:51 AM51 °FPassing clouds.3 mph80%29.90 "Hg10 mi
2:51 AM53 °FClear.No wind69%29.91 "Hg10 mi
1:51 AM53 °FPassing clouds.No wind72%29.93 "Hg10 mi
12:51 AM54 °FClear.3 mph69%29.95 "Hg10 mi
11:51 PM
Oct 20
54 °FPassing clouds.5 mph69%29.96 "Hg10 mi
10:51 PM54 °FClear.3 mph62%29.96 "Hg10 mi
9:51 PM53 °FClear.No wind59%29.97 "Hg10 mi
8:51 PM53 °FClear.No wind56%29.97 "Hg10 mi
7:51 PM56 °FClear.3 mph49%29.97 "Hg10 mi
6:51 PM56 °FSunny.5 mph51%29.96 "Hg10 mi
5:51 PM60 °FSunny.10 mph41%29.96 "Hg10 mi
4:51 PM60 °FSunny.9 mph41%29.96 "Hg10 mi
Weather by CustomWeather, © 2014

See weather overviewHow to use our weather pages